Hourly Data Report for October 05, 2015

All times are specified in Local Standard Time (LST). Add 1 hour to adjust for Daylight Saving Time where and when it is observed.

KUGLUKTUK A
NUNAVUT

67°49'00.000" N
115°08'38.000" W
22.60 m
2300903
71938
YCO

Download Data

Hourly Data (October 2015)
Hourly Data Report for October 5, 2015
Temp Definition
°C
Dew Point Temp Definition
°C
Rel Hum Definition
%
Wind Dir Definition
10's deg

Wind Spd Definition
km/h
Visibility Definition
km
Stn Press Definition
kPa
Hmdx Definition


Wind Chill Definition


Weather Definition


TIME
00:00 Legend Double Dagger 0.8 -0.4 92 24 19 24.1 100.91     LegendNANA
01:00 Legend Double Dagger 0.1 -0.9 93 26 22 24.1 100.93     LegendNANA
02:00 Legend Double Dagger -1.2 -2.0 94 27 19 24.1 100.95   -7 Mainly Clear
03:00 Legend Double Dagger -0.3 -1.4 92 26 13 24.1 100.98   -4 LegendNANA
04:00 Legend Double Dagger -0.2 -1.2 93 25 13 16.1 100.97   -4 Snow Grains
05:00 Legend Double Dagger 0.0 -0.4 97 26 13 8.1 101.00   -4 Snow
06:00 Legend Double Dagger 0.2 -0.2 97 32 19 6.4 101.02     Snow
07:00 Legend Double Dagger 0.1 -2.6 82 32 18 24.1 101.04     LegendNANA
08:00 Legend Double Dagger -0.4 -3.4 80 28 12 24.1 101.05   -4 Mostly Cloudy
09:00 Legend Double Dagger -0.6 -3.1 83 28 11 24.1 101.08   -4 LegendNANA
10:00 Legend Double Dagger -0.4 -3.3 81 29 12 24.1 101.07   -4 LegendNANA
11:00 Legend Double Dagger -0.7 -4.2 77 29 16 24.1 101.04   -5 Cloudy
12:00 Legend Double Dagger -0.4 -4.8 72 29 16 24.1 101.04   -5 LegendNANA
13:00 Legend Double Dagger 0.0 -5.0 69 29 14 24.1 101.01   -4 LegendNANA
14:00 Legend Double Dagger 0.5 -5.3 65 26 18 24.1 101.02     Mainly Clear
15:00 Legend Double Dagger 1.1 -4.8 65 26 16 24.1 101.01     LegendNANA
16:00 Legend Double Dagger 0.7 -4.9 66 26 18 24.1 100.97     LegendNANA
17:00 Legend Double Dagger 0.5 -5.3 65 25 17 24.1 100.95     Cloudy
18:00 Legend Double Dagger -0.9 -5.3 72 25 19 24.1 100.95   -6 LegendNANA
19:00 Legend Double Dagger -1.7 -5.2 77 24 17 24.1 100.96   -7 LegendNANA
20:00 Legend Double Dagger -1.9 -5.6 76 25 22 24.1 100.99   -8 Mainly Clear
21:00 Legend Double Dagger -2.3 -5.5 79 27 20 24.1 101.01   -8 LegendNANA
22:00 Legend Double Dagger -2.7 -5.5 81 27 23 24.1 101.02   -9 LegendNANA
23:00 Legend Double Dagger -2.9 -5.7 81 26 23 24.1 101.02   -9 Mostly Cloudy

Notes on Data Quality.

Legend

  • E = Estimated
  • M = Missing
  • NA = Not Available
  • ‡ = Partner data that is not subject to review by the National Climate Archives
Date modified: